AirNav   Everest Fuels
 
 909 users online  

44TE Shirley Williams Airport
Kingsland, Texas, USA

GOING TO KINGSLAND?


FAA INFORMATION EFFECTIVE 30 JANUARY 2020

Location

FAA Identifier: 44TE
Lat/Long: 30-41-00.6620N 098-25-01.1040W
30-41.011033N 098-25.018400W
30.6835172,-98.4169733
(estimated)
Elevation: 880 ft. / 268 m (estimated)
Variation: 07E (1985)
From city: 2 miles NE of KINGSLAND, TX
Time zone: UTC -6 (UTC -5 during Daylight Saving Time)
Zip code: 78639

Airport Operations

Airport use: Private use. Permission required prior to landing
Activation date: 06/1959
Control tower: no
ARTCC: HOUSTON CENTER
FSS: SAN ANGELO FLIGHT SERVICE STATION
Attendance: UNATNDD
Wind indicator: yes
Segmented circle: no

Airport Communications

WX ASOS at BMQ (10 nm E): 119.925 (512-756-7277)
WX AWOS-3 at DZB (10 nm S): 119.775 (830-598-2059)
WX AWOS-3 at AQO (14 nm NW): 119.425 (325-247-2189)

Nearby radio navigation aids

VOR radial/distance  VOR name  Freq  Var
LLOr102/20.3LLANO VORTAC108.2008E
STVr020/32.3STONEWALL VORTAC113.8008E
AGJr200/33.3GOOCH SPRINGS VORTAC112.5005E
GRKr229/37.5GRAY VOR/DME111.8007E

Airport Services

Airframe service: NONE
Powerplant service: NONE

Runway Information

Runway 16/34

Dimensions: 2600 x 100 ft. / 792 x 30 m
Surface: turf
RUNWAY 16  RUNWAY 34
Traffic pattern: leftleft
Obstructions: treespline

Airport Ownership and Management from official FAA records

Ownership: Privately-owned
Owner: RIVER VALLEY RANCH AIR STRIP ASSOC
106 TAIL WIND LANE
KINGSLAND, TX 77863
Phone 512-827-9943
Manager: RIVER VALLEY RANCH AIR STRIP ASSOC
106 TAILWIND LN
KINGSLAND, TX 78639
Phone 512-827-9943

Airport Operational Statistics

Aircraft based on the field: 19
Single engine airplanes: 16
Ultralights: 3
    

Additional Remarks

FOR CD CTC HOUSTON ARTCC AT 281-230-5622.

Instrument Procedures

There are no published instrument procedures at 44TE.

Some nearby airports with instrument procedures:

KBMQ - Burnet Municipal Airport-Kate Craddock Field (10 nm E)
KAQO - Llano Municipal Airport (14 nm NW)
KRYW - Lago Vista TX - Rusty Allen Airport (26 nm SE)
KLZZ - Lampasas Airport (28 nm NE)
3R9 - Lakeway Airpark (29 nm SE)
 
Loc | Ops | Rwys | IFR | FBO | Links
Com | Nav | Svcs | Stats | Notes
Area around 44TE (Shirley Williams Airport)
 
Road maps at: MapQuest Bing Google
 
Aerial photo
WARNING: Photo may not be current or correct
Aerial photo of 44TE (Shirley Williams Airport)
Photo taken 11-Apr-2007

Do you have a better or more recent aerial photo of Shirley Williams Airport that you would like to share? If so, please send us your photo.

 
Sectional chart

 
Airport distance calculator
Flying to Shirley Williams Airport? Find the distance to fly.

From to 44TE

Sunrise and sunset
Times for 18-Feb-2020
 Local
(UTC-6)
 Zulu
(UTC)
Morning civil twilight06:4812:48
Sunrise07:1313:13
Sunset18:2300:23
Evening civil twilight18:4700:47

Current date and time
Zulu (UTC)  19-Feb-2020 02:07:42
Local (UTC-6)  18-Feb-2020 20:07:42
 
METAR
KDZB 
10nm S 
190156Z AUTO 31004KT 10SM -RA OVC025 09/08 A3021 RMK AO2 P0002
KBMQ 
10nm E 
190153Z AUTO 00000KT 10SM -RA FEW028 SCT080 OVC110 08/05 A3020 RMK AO2 SLP222 P0002 T00830050
KAQO 
14nm NW 
190150Z AUTO 33005KT 7SM FEW001 BKN022 OVC034 08/07 A3025 RMK AO2 PWINO
TAF
KGRK 
38nm NE 
190000Z 1900/2006 01015G20KT 9999 VCSH OVC020 QNH3008INS BECMG 1907/1908 01009KT 9000 BR BKN004 OVC010 510023 QNH3021INS BECMG 1914/1915 02012KT 6000 -SHRA OVC003 QNH3019INS TX10/1900Z TN09/2000Z
KAUS 
44nm SE 
182038Z 1821/1924 36015KT P6SM SCT006 OVC018 TEMPO 1823/1903 02008KT -SHRA OVC030 FM190300 36014KT P6SM -SHRA OVC012 FM191400 01012KT 5SM SHRA OVC008
NOTAMs
Click for the latest NOTAMs
NOTAMs are issued by the DoD/FAA and will open in a separate window not controlled by AirNav.

 

 
 

Would you like to see your business listed on this page?

 If your business provides an interesting product or service to pilots, flight crews, aircraft, or users of the Shirley Williams Airport, you should consider listing it here.  To start the listing process, click on the button below
 
Add a business
 

Other Pages about Shirley Williams Airport

Update a link
 
Copyright © AirNav, LLC. All rights reserved. Privacy Policy  Contact